Ignacio, CO

7:26 AM MST on February 07, 2016 (GMT -0700)
Durango-La Plata County

Weather History for KDRO - September, 2012

Change the Weather History Date:

Thursday, September 6, 2012

  Actual Average Record
Temperature  
Mean Temperature 66 °F 62 °F  
Max Temperature 87 °F 79 °F 92 °F (1983)
Min Temperature 45 °F 46 °F 37 °F (2008)
Degree Days  
Heating Degree Days 0 3  
Month to date heating degree days 0 16  
Since 1 July heating degree days 5 45  
Cooling Degree Days 1 0  
Month to date cooling degree days 29 3  
Year to date cooling degree days 471 240  
Growing Degree Days 16 (Base 50)    
Moisture  
Dew Point 25 °F    
Average Humidity 26    
Maximum Humidity 42    
Minimum Humidity 10    
Precipitation  
Precipitation 0.00 in 0.07 in 0.87 in (1981)
Month to date precipitation T 0.37  
Year to date precipitation 5.26 10.34  
Sea Level Pressure  
Sea Level Pressure 29.95 in    
Wind  
Wind Speed 4 mph (NNW)    
Max Wind Speed 17 mph    
Max Gust Speed 23 mph    
Visibility 10 miles    
Events      
T = Trace of Precipitation, MM = Missing Value Source: NWS Daily Summary

Daily Weather History Graph

Daily Weather History Graph

Search for Another Location

Airport or City:

Trip Planner

Search our weather history database for the weather conditions in past years. The results will help you decide how hot, cold, wet, or windy it might be!

Date:

Astronomy

Sep. 06, 2012 Rise Set
Actual Time 6:46 AM MDT 7:31 PM MDT
Civil Twilight 6:19 AM MDT 7:57 PM MDT
Nautical Twilight 5:48 AM MDT 8:28 PM MDT
Astronomical Twilight 5:16 AM MDT 9:00 PM MDT
Moon 10:53 PM MDT (9/6) 12:38 PM MDT (9/6)
Length of Visible Light 13h 37m
Length of Day
12h 45m
Waning Gibbous, 67% of the Moon is Illuminated
Sep 6
Waning Gibbous
Sep 8
Last Quarter
Sep 15
New
Sep 22
First Quarter
Sep 29
Full

Hourly Weather History & Observations

Time (MDT) Temp. Dew Point Humidity Pressure Visibility Wind Dir Wind Speed Gust Speed Precip Events Conditions
12:53 AM 57.0 °F 21.9 °F 26% 29.94 in 10.0 mi Calm Calm - N/A   Clear
1:53 AM 54.0 °F 21.9 °F 29% 29.94 in 10.0 mi Calm Calm - N/A   Clear
2:53 AM 55.9 °F 21.9 °F 27% 29.93 in 10.0 mi North 3.5 mph - N/A   Clear
3:53 AM 53.1 °F 21.9 °F 30% 29.94 in 10.0 mi NNE 3.5 mph - N/A   Clear
4:53 AM 48.9 °F 21.0 °F 33% 29.96 in 10.0 mi NNE 4.6 mph - N/A   Scattered Clouds
5:53 AM 46.9 °F 23.0 °F 39% 29.99 in 10.0 mi Calm Calm - N/A   Clear
6:53 AM 46.0 °F 24.1 °F 42% 30.01 in 10.0 mi Calm Calm - N/A   Clear
7:53 AM 54.0 °F 24.1 °F 31% 30.01 in 10.0 mi ENE 3.5 mph - N/A   Clear
8:53 AM 59.0 °F 28.0 °F 31% 30.02 in 10.0 mi Calm Calm - N/A   Clear
9:53 AM 69.1 °F 21.9 °F 17% 30.02 in 10.0 mi Calm Calm - N/A   Clear
10:53 AM 73.0 °F 23.0 °F 15% 30.00 in 10.0 mi Calm Calm - N/A   Partly Cloudy
11:53 AM 75.9 °F 24.1 °F 15% 30.00 in 10.0 mi NNE 3.5 mph - N/A   Overcast
12:53 PM 80.1 °F 21.0 °F 11% 29.98 in 10.0 mi Calm Calm - N/A   Mostly Cloudy
1:53 PM 82.9 °F 21.9 °F 11% 29.96 in 10.0 mi West 8.1 mph - N/A   Clear
2:53 PM 84.9 °F 21.0 °F 10% 29.91 in 10.0 mi East 6.9 mph - N/A   Partly Cloudy
3:53 PM 86.0 °F 23.0 °F 10% 29.89 in 10.0 mi SW 6.9 mph 16.1 mph N/A   Clear
4:53 PM 84.9 °F 23.0 °F 10% 29.90 in 10.0 mi SW 10.4 mph 20.7 mph N/A   Partly Cloudy
5:53 PM 86.0 °F 27.0 °F 12% 29.89 in 10.0 mi WSW 11.5 mph - N/A   Clear
6:53 PM 82.9 °F 28.0 °F 14% 29.90 in 10.0 mi West 10.4 mph - N/A   Clear
7:53 PM 78.1 °F 28.9 °F 17% 29.90 in 10.0 mi WNW 11.5 mph - N/A   Clear
8:53 PM 75.0 °F 30.9 °F 20% 29.91 in 10.0 mi NW 9.2 mph - N/A   Clear
9:53 PM 69.1 °F 30.9 °F 24% 29.91 in 10.0 mi Calm Calm - N/A   Clear
10:53 PM 64.0 °F 33.1 °F 31% 29.93 in 10.0 mi North 3.5 mph - N/A   Clear
11:53 PM 61.0 °F 33.1 °F 35% 29.93 in 10.0 mi Calm Calm - N/A   Clear